Weather in Somovka

Russia / Nizhny Novgorod Oblast'     56°07′56″N   45°43′11″E
temp.,
°C
wind,
m/s
gust,
m/s
humid.,
%
clouds,
%
prec.,
mm/h
press.,
hPa
HPBL,
m
14 june, mon
mon1400:00+14sse2496100 0.0 101187
03:00+14ssw2597100 0.0 1012108
06:00+16sw25924 0.0 1013230
09:00+22wsw34630 0.0 1014875
12:00+25wsw344941 0.0 10141732
15:00+26sw444817 0.0 10141867
18:00+24sw356235 0.0 1014574
21:00+18wsw22884 0.1 101416
15 june, tue
tue1500:00+16w11900 0.4 101412
03:00+15sw11930 0.4 101511
06:00+19s11820 0.0 1015134
09:00+24sse11640 0.4 1014630
12:00+26sse22501 1.6 10141356
15:00+26s445310 1.8 10121661
18:00+20s368872 1.8 1012199
21:00+18sse399680 4.4 1011198
16 june, wed
wed1600:00+17s2696100 0.5 1011147
03:00+15s1194100 0.5 101015
06:00+19ese128782 0.1 101098
09:00+23ene125988 0.1 1008466
12:00+27nnw224537 0.0 10071233
15:00+24nw4765100 0.5 1007686
18:00+20nnw49845 4.3 1008857
21:00+17nnw512700 4.3 1012728
17 june, thu
thu1700:00+13nw311800 0.0 1014286
03:00+11nw288299 0.0 1016166
06:00+15nw25672 0.0 1017236
09:00+20nw47420 0.0 10181308
12:00+22nw56325 0.0 10182327
15:00+22nnw573417 0.0 10192551
18:00+20nnw47455 0.0 10201414
21:00+16nnw276493 0.0 1022190
18 june, fri
fri1800:00+12n24710 0.0 102365
03:00+10nnw22771 0.0 102519
06:00+15nnw23655 0.0 1026180
09:00+20n23381 0.0 10261331
12:00+23nw233319 0.0 10261979
15:00+24nw233339 0.0 10252127
18:00+23n135212 0.0 1025430
21:00+16wsw1174100 0.0 102611